Regional Weather Roundup
Issued by NWS Northern Indiana

Home | Current Version | Previous Version | Text Only | Print | Product List | Glossary On
Versions: 1 2 3 4 5 6 7 8 9 10 11 12 13 14 15 16 17 18 19 20 21 22 23 24 25 26 27 28 29 30 31 32 33 34 35 36 37 38 39 40 41 42 43 44 45 46 47 48 49 50
000
ASUS43 KIWX 280210
RWRIWX

KIWX WEATHER ROUNDUP
NATIONAL WEATHER SERVICE NORTHERN INDIANA
1000 PM EDT SAT AUG 27 2016

NOTE: "FAIR" INDICATES FEW OR NO CLOUDS BELOW 12,000 FEET WITH NO
SIGNIFICANT WEATHER AND/OR OBSTRUCTIONS TO VISIBILITY.

* THESE STATIONS ARE NOT UNDER NWS QUALITY CONTROL. THEY ALSO MAY NOT
  REPORT WEATHER SUCH AS PRECIPITATION OR FOG.

INZ001>027-280300-
NORTHERN INDIANA

CITY           SKY/WX    TMP DP  RH WIND       PRES   REMARKS
GARY*          MOCLDY    75  73  94 VRB3      30.07R
VALPARAISO     CLEAR     77  72  84 S3        30.09R
MICHIGAN CITY* CLEAR     77  72  83 MISG      30.08R
LAPORTE*       CLEAR     77  77 100 CALM      30.10R
KNOX*          PTCLDY    73  55  53 S5        30.08R
SOUTH BEND     CLEAR     76  72  87 S7        30.09R
GOSHEN         CLEAR     75  70  84 S5        30.10R
MONTICELLO*    CLEAR     77  70  80 S5        30.08R
LOGANSPORT*    CLEAR     73  72  94 SE6       30.11R
ROCHESTER*     CLEAR     79  73  83 S3        30.10R
WARSAW*        PTCLDY    75  73  94 CALM      30.11R
ANGOLA*        CLEAR     73  66  78 S6        30.11S
FORT WAYNE     CLOUDY    73  70  90 S7        30.12R
HUNTINGTON*    PTCLDY    74  73  94 S3        30.12R
PERU/GRISSOM   CLEAR     76  74  93 S7        30.10R
MARION*        PTCLDY    73  70  89 S5        30.14R

$$
INZ028>050-280300-
CENTRAL INDIANA

CITY           SKY/WX    TMP DP  RH WIND       PRES   REMARKS
LAFAYETTE      CLEAR     78  73  84 S7        30.09R
KOKOMO*        CLEAR     73  72  94 S3        30.12R
MUNCIE*        PTCLDY    74  71  91 CALM      30.14R
INDIANAPOLIS   PTCLDY    79  72  79 CALM      30.12R

$$
MIZ043>046-050>051-056>058-064>065-071>073-077>080-280300-
SOUTHWEST LOWER MICHIGAN

CITY           SKY/WX    TMP DP  RH WIND       PRES   REMARKS
BATTLE CREEK   CLEAR     72  72 100 S6        30.11R
BENTON HARBOR  CLEAR     76  72  87 S8        30.07R
COLDWATER*     CLEAR     72  71  97 CALM      30.11R
HILLSDALE*     CLOUDY    73  71  94 SE5       30.13R FOG
HOLLAND        PTCLDY    74  70  87 CALM      30.08R
GRAND RAPIDS   PTCLDY    72  69  90 SE3       30.08R
KALAMAZOO      MOCLDY    76  71  85 S7        30.10R
STURGIS*       CLEAR     73  69  87 S3        30.11R
THREE RIVERS*  FAIR      75  72  88 CALM      30.11R

$$
OHZ001>008-015>018-024>025-280300-
NORTHWEST OHIO

CITY           SKY/WX    TMP DP  RH WIND       PRES   REMARKS
WAUSEON*       FAIR      72  70  94 S6        30.12S
DEFIANCE       CLEAR     75  71  87 SE5       30.12R
FINDLAY        CLEAR     73  69  87 SE7       30.13R
TOLEDO EXPRESS CLEAR     71  71 100 SE5       30.12R
TOLEDO METCALF PTCLDY    73  72  96 SE6       30.13R
LIMA           CLEAR     72  71  97 S7        30.14R

$$
AND FOR LAKE MICHIGAN COASTAL AND OPEN LAKE BUOY OBSERVATIONS

STATION/POSITION TEMP    WIND        PRES    VSBY  WAVE
                 AIR SEA DIR/SP/G                  HT/PER
                 (F)     (DEG/KT/KT) (MB)    (MI)  (FT/S)
CALUMET HARBOR    81                 1016.8R
MICHIGAN CITY     80     160/  9/ 11   N/A
BURNS HARBOR      80     190/  8/ 11 1017.9R
SAINT JOSEPH      78     150/  2/  6 1019.3R
SOUTH LAKE BUOY   76 75  150/  8/ 10 1017.0R         1/ 3
4 MI NW BRIDGMAN  78 76  170/  8/ 10 1017.8R         1
MICHIGAN CITY     78 76  180/  6/  8   N/A           1

$$
&&



USA.gov is the U.S. government's official web portal to all federal, state and local government web resources and services.